Tracking 28790 objects as of 19-Apr-2024
HD Live streaming from Space Station
objects crossing your sky now

STARLINK-5940

Track STARLINK-5940 now!
10-day predictions
STARLINK-5940 is classified as:


NORAD ID: 56012
Int'l Code: 2023-042AC
Perigee: 565.4 km
Apogee: 567.1 km
Inclination: 43.0 °
Period: 95.8 minutes
Semi major axis: 6937 km
RCS: Unknown
Launch date: March 24, 2022
Source: United States (US)
Launch site: AIR FORCE EASTERN TEST RANGE (AFETR)
Your satellite tracking list
Your tracking list is empty




NASA's NSSDC Master Catalog

Two Line Element Set (TLE):
1 56012U 23042AC  24109.57502088 -.00000665  00000-0 -34139-4 0  9999
2 56012  43.0016 193.4696 0001204 271.6396  88.4308 15.02529464 59585
Source of the keplerian elements: AFSPC